weather.gov     
National Weather Service

Regional Weather Roundup
NWS Homepage
This page is being discontinued on March 12, 2014.
The same data is available at this site. Please update your bookmarks.
Thank you, and we apologize for the inconvenience.
Please send an email to SR-SRH.Webmaster@noaa.gov with any concerns.


Current Version
Previous Version:    01  02  03  04  05  06  07  08  09  10  11  12  13  14  15  16  17  18  19  20  21  22  23  24  25  26  27  28  29  30  
   31  32  33  34  35  36  37  38  39  40  41  42  43  44  45  46  47  48  49  50  51  52  53  54  55  56  57  58  59  60  
[Printable]
128
ASUS41 KCLE 020710
RWRCLE
OHIO REGIONAL WEATHER ROUNDUP
NATIONAL WEATHER SERVICE CLEVELAND, OH
300 AM EDT TUE SEP 02 2014

NOTE: "FAIR" INDICATES FEW OR NO CLOUDS BELOW 12,000 FEET WITH NO
SIGNIFICANT WEATHER AND/OR OBSTRUCTIONS TO VISIBILITY.

OHZ001>008-015>018-024>027-034-035-043-044-020800-
   NORTHWEST OHIO

CITY           SKY/WX    TMP DP  RH WIND       PRES   REMARKS
DEFIANCE       CLEAR     70  65  84 SW7       29.91R
FINDLAY        CLEAR     72  67  84 SW10      29.91S
TOLEDO EXPRESS CLEAR     72  66  81 SW6       29.88S
TOLEDO EXEC    CLEAR     72  67  84 SW8       29.88F
LIMA           CLEAR     72  68  87 SW7       29.94R
$$

OHZ009>014-019>023-028>033-038-089-020800-
   NORTHEAST OHIO

CITY           SKY/WX    TMP DP  RH WIND       PRES   REMARKS
CLE-HOPKINS    MOCLDY    74  69  85 SW8       29.91F
CLE-LAKEFRONT  CLEAR     77  69  76 SW14      29.87F
CUY CO. ARPT   NOT AVBL
LORAIN-ELYRIA  PTCLDY    77  70  79 W9        29.90F
ASHTABULA      PTCLDY    73  70  90 SW10      29.90S
AKRON-CANTON   PTCLDY    74  69  85 SW12      29.93F
WOOSTER        PTCLDY    72  69  90 SW8       29.94F
MANSFIELD      PTCLDY    72  70  93 SW8       29.94F
YOUNGSTOWN     PTCLDY    72  69  90 SW12      29.93S
$$

OHZ042-051>053-060>062-070>072-077>081-020800-
  SOUTHWEST OHIO

CITY           SKY/WX    TMP DP  RH WIND       PRES   REMARKS
CINC-COVINGTON CLOUDY    75  71  87 S7        29.97S
CINC-LUNKEN    MOCLDY    76  71  85 SW7       29.96S
HAMILTON       CLOUDY    74  72  93 CALM      29.97R
DAYTON         MOCLDY    73  70  90 SW6       29.98R
WRIGHT-PAT AFB PTCLDY    72  71  96 SW6       29.96R
DAYTON GENERAL PTCLDY    74  71  91 SW9       29.96R
WILMINGTON     PTCLDY    71  69  93 SW7       29.98R
$$

OHZ036-037-039>041-045>050-054>059-063>069-073>076-082>088-020800-
  CENTRAL AND SOUTHEAST OHIO

CITY           SKY/WX    TMP DP  RH WIND       PRES   REMARKS
COLUMBUS       MOCLDY    76  70  82 SW5       29.96S
OSU AIRPORT    MOCLDY    74  70  87 S6        29.95F
BOLTON FIELD   CLOUDY    71  71  99 S3        29.97R
RICKENBACK AFB MOCLDY    74  67  79 S7        29.95S
NEWARK         MOCLDY    71  68  90 CALM      29.95F
MARION         MOCLDY    71  69  93 S6        29.94F
LANCASTER      MOCLDY    74  69  85 CALM      29.97F
ZANESVILLE     CLEAR     73  68  84 S5        29.97F
NEW PHILLY     PTCLDY    73  70  90 CALM      29.95F
$$




U.S. Dept. of Commerce
NOAA National Weather Service
1325 East West Highway
Silver Spring, MD 20910
E-mail: w-nws.webmaster@noaa.gov
Page last modified: May 16, 2007
NATIONAL WEATHER SERVICE: for Safety, for Work, for Fun - FOR LIFE